Current weather by "City, St" or "zip code"  
 

Current Conditions: West Branch Community Airport, MI

Overcast


60.0 F

Last Updated on May 21 2022, 5:35 am EDT
Humidity: 93%
Wind Speed: W 4.6 mph
Barometer 29.79 in
Dewpoint: 58.1 F
Visibility: 10.00 mi
Precip: --
Heat Index: NA
Wind Chill: 60 F
Current conditions at:

West Branch Community Airport, MI (KY31)

Lat: 44.2448 Lon: 84.1798

Local Radar Image active severe weather and emergency alerts image image weather storm and storm spotter reports image weather observation monitoring service image
Local
Radar
Active
Alerts
Storm Reports Obs
Monitoring

Sign-up For Email & Text Message Weather Alert Notification Services



Advertise Here

Observation History for West Branch Community Airport, MI


Time Wind
(mph)
Vis
(mi)
Weather Precip (in) Temperature (F) Relative
Humidity
Wind
Chill
(F)
Heat
Index
(F)
Pressure
Air Dwpt altimeter
(in)
sea level
(mb)
Rmks
5:35 am EDT W 4.6 10.00 Overcast -- 60.0 58.1 93% 60 NA 29.79 M
5:15 am EDT N 0.0 10.00 Overcast -- 60.0 58.1 94% NA NA 29.79 M
4:55 am EDT N 0.0 10.00 Light Rain -- 60.0 58.1 94% NA NA 29.80 M
4:35 am EDT N 0.0 10.00 Light Rain -- 60.0 57.7 94% NA NA 29.78 M
4:21 am EDT SW 3.5 5.00 Rain -- 60.0 58.1 95% NA NA 29.78 M
3:55 am EDT SW 3.5 7.00 Light Rain -- 59.0 57.6 94% NA NA 29.76 M
3:35 am EDT N 0.0 7.00 Overcast -- 59.0 57.2 94% NA NA 29.73 M
3:15 am EDT N 0.0 7.00 Light Rain -- 60.0 57.7 94% NA NA 29.73 M
2:55 am EDT N 0.0 7.00 Light Rain -- 59.0 57.6 94% NA NA 29.72 M
2:35 am EDT N 0.0 10.00 Light Rain -- 59.0 57.4 94% NA NA 29.72 M
2:11 am EDT N 0.0 5.00 Light Rain -- 60.0 57.4 93% NA NA 29.71 M
2:02 am EDT N 0.0 7.00 Rain -- 59.0 57.2 94% NA NA 29.73 M
1:15 am EDT N 0.0 3.00 Heavy Rain -- 60.0 57.7 93% NA NA 29.68 M
12:55 am EDT N 0.0 10.00 Light Rain -- 60.0 57.7 91% NA NA 29.70 M
12:35 am EDT N 0.0 10.00 Overcast -- 60.0 57.7 93% NA NA 29.68 M
12:15 am EDT N 0.0 10.00 Overcast -- 60.0 57.4 90% NA NA 29.67 M
11:55 pm EDT N 0.0 10.00 Light Rain -- 61.0 56.7 86% NA NA 29.67 M
11:35 pm EDT N 0.0 10.00 Light Rain -- 61.0 57.2 87% NA NA 29.66 M
10:55 pm EDT NW 3.5 10.00 Overcast -- 61.0 57.6 87% NA NA 29.64 M
10:15 pm EDT NW 10.4 4.00 Heavy Rain -- 63.0 57.4 82% 62 NA 29.63 M
9:55 pm EDT NW 9.2 10.00 Overcast -- 64.0 56.5 77% NA NA 29.62 M
9:35 pm EDT NW 3.5 10.00 Overcast -- 64.0 57.2 78% NA NA 29.60 M
9:15 pm EDT NW 3.5 10.00 Overcast -- 65.0 59.0 80% NA NA 29.59 M
8:55 pm EDT NW 5.8 10.00 Overcast -- 66.0 59.9 82% NA NA 29.58 M

Regional Weather Observation


Houghton Lake, Roscommon County Airport, MI (KHTL)

Overcast
58.0 F

Grayling, Grayling Army Airfield, MI (KGOV)

Overcast
55.0 F

Oscoda, Oscoda-Wurtsmith Airport, MI (KOSC)

Light Rain
53.0 F

Bellaire, Antrim County Airport, MI (KACB)

Fair
53.0 F

Wexford County Airport, MI (KCAD)

Fair
53.0 F

Gaylord Regional Airport, MI (KGLR)

Light Rain and Breezy
82.0 F

Advertise Here


Advertise Here